Location: Tel Aviv
(32.0670°N, 34.7670°E)
Time: 02:07:28
(UTC+03:00)

Tiros 1 - Pass Details

Date: 24 January 2022
Orbit: 629 x 663 km, 48.4° (Epoch: 26 May)

Event Time Altitude Azimuth Distance (km) Brightness Sun altitude
Rises 07:10:35 0° 284° (WNW) 2,948 9.9 5.2°
Reaches altitude 10° 07:14:50 10° 248° (WSW) 2,023 9.3 6.0°
Maximum altitude 07:15:58 11° 234° (SW) 1,965 9.4 6.2°
Drops below altitude 10° 07:17:06 10° 219° (SW) 2,015 9.6 6.5°
Sets 07:21:18 0° 183° (S) 2,909 10.9 7.2°
